This is the latest recevied weather packets stored in our database for station/object WK7G. If no packets are shown the sender has not sent any weather packets the latest 10 day(s).
| Time | Temp. | Humidity | Pressure | Rain* | Wind** | Luminosity | Snow |
|---|---|---|---|---|---|---|---|
| 1777851029 | 20° C | 29% | 1005.6 hPa | 0 mm | - | 531 W/m² | - |
| 1777850726 | 20° C | 31% | 1005.6 hPa | 0 mm | - | 538 W/m² | - |
| 1777850424 | 18.89° C | 31% | 1006.1 hPa | 0 mm | - | 567 W/m² | - |
| 1777850122 | 19.44° C | 33% | 1005.7 hPa | 0 mm | - | 566 W/m² | - |
| 1777849818 | 19.44° C | 34% | 1006.2 hPa | 0 mm | - | 536 W/m² | - |
| 1777849514 | 17.78° C | 36% | 1006.3 hPa | 0 mm | - | 569 W/m² | - |
| 1777849212 | 18.33° C | 35% | 1006.2 hPa | 0 mm | - | 157 W/m² | - |
| 1777848909 | 18.33° C | 36% | 1006.1 hPa | 0 mm | - | 461 W/m² | - |
| 1777848604 | 18.33° C | 35% | 1006.3 hPa | 0 mm | - | 526 W/m² | - |
| 1777848301 | 17.78° C | 33% | 1006.3 hPa | 0 mm | - | 188 W/m² | - |
| 1777847999 | 18.89° C | 31% | 1006.5 hPa | 0 mm | - | 198 W/m² | - |
| 1777847697 | 18.89° C | 28% | 1006.4 hPa | 0 mm | - | 202 W/m² | - |
| 1777847392 | 17.78° C | 32% | 1006.4 hPa | 0 mm | - | 643 W/m² | - |
| 1777847091 | 17.78° C | 28% | 1006.5 hPa | 0 mm | - | 173 W/m² | - |
| 1777846789 | 17.78° C | 28% | 1006.4 hPa | 0 mm | - | 184 W/m² | - |
| 1777846487 | 18.33° C | 28% | 1006.8 hPa | 0 mm | - | 212 W/m² | - |
| 1777846183 | 17.78° C | 32% | 1006.5 hPa | 0 mm | - | 281 W/m² | - |
| 1777845879 | 17.78° C | 27% | 1006.5 hPa | 0 mm | - | 187 W/m² | - |
| 1777845577 | 18.33° C | 32% | 1006.9 hPa | 0 mm | - | 213 W/m² | - |
| 1777845273 | 18.33° C | 29% | 1006.5 hPa | 0 mm | - | 225 W/m² | - |
| 1777844971 | 17.78° C | 29% | 1006.8 hPa | 0 mm | - | 190 W/m² | - |
| 1777844669 | 17.78° C | 33% | 1006.8 hPa | 0 mm | - | 149 W/m² | - |
| 1777844366 | 17.78° C | 31% | 1007.1 hPa | 0 mm | - | 157 W/m² | - |
| 1777844064 | 18.33° C | 28% | 1006.9 hPa | 0 mm | - | 167 W/m² | - |
| 1777843760 | 17.78° C | 29% | 1007.4 hPa | 0 mm | - | 652 W/m² | - |
* Rain latest hour (hover to see other rain measurements)
** Current wind speed in m/s (hover to see current wind gust speed)